Location: Carrer del Canonge
(41.4901°N, 2.2931°E)
Time: 16:52:12
(UTC+00:00)

SPOT 3 Rocket - Pass Details

Date: 26 June 2021
Orbit: 779 x 794 km, 98.7° (Epoch: 26 July)

Event Time Altitude Azimuth Distance (km) Brightness Sun altitude
Exits shadow 21:25:11 - 200° (SSW) 2,427 5.8 -16.6°
Reaches altitude 10° 21:25:27 10° 201° (SSW) 2,338 5.7 -16.6°
Maximum altitude 21:30:01 32° 264° (W) 1,338 5.0 -17.1°
Drops below altitude 10° 21:34:39 10° 326° (NW) 2,362 7.3 -17.6°
Sets 21:37:14 0° 337° (NNW) 3,298 8.4 -17.9°
